Погода в Катунках

Россия / Нижегородская область     56°49′48″N   43°13′08″E
темп.,
°C
ветер,
м/с
пор.,
м/с
влажн.,
%
обл.,
%
осадки,
мм/ч
давл.,
гПа
погр.,
м
6 марта, сб
сб600:00−14сз45901 0.0 101150
03:00−16з34921 0.0 101432
06:00−16з349344 0.0 101431
09:00−13з359448 0.1 1015199
12:00−10зсз238698 0.0 1014425
15:00−8з248298 0.1 1013326
18:00−11з3488100 0.0 101321
21:00−14з239474 0.0 101320
7 марта, вс
вс700:00−15юз33974 0.0 101120
03:00−16ююз34972 0.0 101030
06:00−15ю459935 0.0 100788
09:00−10ю7118868 0.0 1003428
12:00−7ююз81393100 0.6 999971
15:00−6ю81293100 1.6 995955
18:00−5ю61195100 1.4 990552
21:00−4ю61196100 2.7 988483
8 марта, пн
пн800:00−6з81493100 1.0 988785
03:00−9з91683100 1.3 990646
06:00−11зюз71384100 0.0 991328
09:00−10з61184100 0.0 992422
12:00−8з6889100 0.1 994504
15:00−7з589099 0.2 997570
18:00−9ссз5993100 0.4 1000368
21:00−12ссз5109394 0.6 1003292
9 марта, вт
вт900:00−15ссз589575 0.0 1006145
03:00−18сз459770 0.1 100878
06:00−21сз459766 0.0 101074
09:00−21ссз479552 0.0 1012227
12:00−17ссз468943 0.0 1013435
15:00−15сз478771 0.0 1014641
18:00−17сз4694100 0.1 1015106
21:00−20ссз4797100 0.1 1018116
10 марта, ср
ср1000:00−24ссз459878 0.0 101983
03:00−26ссз459866 0.0 102074
06:00−28ссз469859 0.0 102188
09:00−27ссз469540 0.0 1023225
12:00−23ссз46925 0.0 1023324
15:00−19ссз47843 0.0 1023434
18:00−21сз33920 0.0 102320
21:00−22зсз34940 0.0 102533